Pinedale, WY

7:49 AM MDT on October 19, 2017 (GMT -0600)
Wenz

Weather History for KPNA - September, 2013

Change the Weather History Date:

Wednesday, September 11, 2013

  Actual Average (KBPI) Record (KBPI)
Temperature  
Mean Temperature 54 °F -  
Max Temperature 64 °F 67 °F 81 °F (2015)
Min Temperature 44 °F 33 °F 19 °F (2010)
Degree Days  
Heating Degree Days 11    
Growing Degree Days 4 (Base 50)    
Moisture  
Dew Point 43 °F    
Average Humidity 67    
Maximum Humidity 94    
Minimum Humidity 42    
Precipitation  
Precipitation 0.00 in - - ()
Sea Level Pressure  
Sea Level Pressure 30.34 in    
Wind  
Wind Speed 7 mph (WNW)    
Max Wind Speed 16 mph    
Max Gust Speed 20 mph    
Visibility 10 miles    
Events Rain    
Averages and records for this station are not official NWS values.
T = Trace of Precipitation, MM = Missing Value Source: NWS Daily Summary

Daily Weather History Graph

Daily Weather History Graph

Search for Another Location

Airport or City:

Trip Planner

Search our weather history database for the weather conditions in past years. The results will help you decide how hot, cold, wet, or windy it might be!

Date:

Astronomy

Sep. 11, 2013 Rise Set
Actual Time 6:55 AM MDT 7:35 PM MDT
Civil Twilight 6:26 AM MDT 8:04 PM MDT
Nautical Twilight 5:52 AM MDT 8:37 PM MDT
Astronomical Twilight 5:17 AM MDT 9:12 PM MDT
Moon 1:35 PM MDT (9/11) 11:25 PM MDT (9/11)
Length of Visible Light 13h 37m
Length of Day
12h 40m
Waxing Crescent, 39% of the Moon is Illuminated
Sep 11
Waxing Crescent
Sep 12
First Quarter
Sep 19
Full
Sep 26
Last Quarter
Oct 4
New

Hourly Weather History & Observations

Time (MDT) Temp. Windchill Dew Point Humidity Pressure Visibility Wind Dir Wind Speed Gust Speed Precip Events Conditions
12:15 AM 50.0 °F - 42.8 °F 76% 30.30 in 10.0 mi WNW 9.2 mph - N/A   Overcast
12:55 AM 50.0 °F - 42.8 °F 76% 30.31 in 10.0 mi WNW 8.1 mph - N/A   Clear
1:15 AM 50.0 °F - 42.8 °F 76% 30.31 in 10.0 mi WNW 10.4 mph - N/A   Clear
1:35 AM 50.0 °F - 41.0 °F 71% 30.31 in 10.0 mi NW 10.4 mph - N/A   Scattered Clouds
1:55 AM 46.4 °F 42.9 °F 41.0 °F 81% 30.31 in 10.0 mi WNW 6.9 mph - N/A   Scattered Clouds
2:15 AM 46.4 °F 42.4 °F 41.0 °F 81% 30.31 in 10.0 mi WNW 8.1 mph - N/A   Clear
2:35 AM 44.6 °F 40.2 °F 41.0 °F 87% 30.31 in 10.0 mi West 8.1 mph - N/A   Scattered Clouds
2:55 AM 46.4 °F 42.9 °F 41.0 °F 81% 30.31 in 10.0 mi WNW 6.9 mph - N/A   Scattered Clouds
3:15 AM 46.4 °F 42.4 °F 41.0 °F 81% 30.31 in 10.0 mi WNW 8.1 mph - N/A   Overcast
3:35 AM 46.4 °F 42.9 °F 41.0 °F 81% 30.31 in 10.0 mi West 6.9 mph - N/A   Overcast
3:55 AM 46.4 °F 42.9 °F 41.0 °F 81% 30.31 in 10.0 mi WNW 6.9 mph - N/A   Overcast
4:15 AM 46.4 °F 42.9 °F 41.0 °F 81% 30.30 in 10.0 mi WNW 6.9 mph - N/A   Scattered Clouds
4:35 AM 44.6 °F 40.7 °F 41.0 °F 87% 30.30 in 10.0 mi WNW 6.9 mph - N/A   Clear
4:55 AM 44.6 °F - 39.2 °F 81% 30.31 in 10.0 mi Calm Calm - N/A   Mostly Cloudy
5:15 AM 44.6 °F 40.7 °F 39.2 °F 81% 30.30 in 10.0 mi WNW 6.9 mph - N/A   Mostly Cloudy
5:35 AM 44.6 °F 43.1 °F 39.2 °F 81% 30.31 in 10.0 mi WNW 3.5 mph - N/A   Overcast
5:55 AM 46.4 °F 44.3 °F 41.0 °F 81% 30.30 in 10.0 mi NW 4.6 mph - N/A   Overcast
6:15 AM 46.4 °F 43.5 °F 41.0 °F 81% 30.30 in 10.0 mi West 5.8 mph - N/A   Overcast
6:35 AM 46.4 °F 42.9 °F 39.2 °F 76% 30.31 in 10.0 mi WNW 6.9 mph - N/A   Overcast
6:55 AM 46.4 °F 42.9 °F 39.2 °F 76% 30.31 in 10.0 mi WNW 6.9 mph - N/A   Mostly Cloudy
7:15 AM 46.4 °F 44.3 °F 41.0 °F 81% 30.31 in 10.0 mi West 4.6 mph - N/A   Mostly Cloudy
7:35 AM 46.4 °F 44.3 °F 41.0 °F 81% 30.31 in 10.0 mi West 4.6 mph - N/A   Scattered Clouds
7:55 AM 48.2 °F - 41.0 °F 76% 30.31 in 10.0 mi NW 5.8 mph - N/A   Scattered Clouds
8:15 AM 50.0 °F - 41.0 °F 71% 30.31 in 10.0 mi WNW 6.9 mph - N/A   Scattered Clouds
8:35 AM 50.0 °F - 41.0 °F 71% 30.32 in 10.0 mi NW 6.9 mph - N/A   Clear
8:55 AM 51.8 °F - 41.0 °F 67% 30.32 in 10.0 mi WNW 6.9 mph - N/A   Clear
9:15 AM 53.6 °F - 41.0 °F 62% 30.32 in 10.0 mi WNW 6.9 mph - N/A   Clear
9:35 AM 55.4 °F - 42.8 °F 63% 30.32 in 10.0 mi NW 6.9 mph - N/A   Clear
9:55 AM 59.0 °F - 41.0 °F 51% 30.32 in 10.0 mi NW 3.5 mph - N/A   Clear
10:15 AM 60.8 °F - 41.0 °F 48% 30.32 in 10.0 mi WNW 3.5 mph - N/A   Scattered Clouds
10:35 AM 62.6 °F - 41.0 °F 45% 30.32 in 10.0 mi WNW 3.5 mph - N/A   Scattered Clouds
10:55 AM 64.4 °F - 41.0 °F 42% 30.32 in 10.0 mi WNW 4.6 mph - N/A   Mostly Cloudy
11:15 AM 64.4 °F - 41.0 °F 42% 30.33 in 10.0 mi WNW 3.5 mph - N/A   Overcast
11:35 AM 64.4 °F - 41.0 °F 42% 30.33 in 10.0 mi Calm Calm - N/A   Overcast
11:55 AM 64.4 °F - 41.0 °F 42% 30.34 in 10.0 mi South 5.8 mph - N/A   Overcast
12:15 PM 64.4 °F - 41.0 °F 42% 30.34 in 10.0 mi SE 6.9 mph - N/A   Overcast
12:35 PM 64.4 °F - 41.0 °F 42% 30.35 in 10.0 mi South 8.1 mph - N/A   Overcast
12:55 PM 62.6 °F - 41.0 °F 45% 30.36 in 10.0 mi South 8.1 mph - N/A   Overcast
1:15 PM 62.6 °F - 42.8 °F 48% 30.36 in 10.0 mi SSW 9.2 mph - N/A   Overcast
1:35 PM 62.6 °F - 42.8 °F 48% 30.36 in 10.0 mi Calm Calm - N/A   Overcast
1:55 PM 62.6 °F - 42.8 °F 48% 30.37 in 10.0 mi SSE 3.5 mph - N/A Rain Light Rain
2:15 PM 60.8 °F - 44.6 °F 55% 30.37 in 10.0 mi South 4.6 mph - N/A   Overcast
2:35 PM 60.8 °F - 44.6 °F 55% 30.37 in 10.0 mi South 4.6 mph - N/A Rain Light Rain
2:55 PM 57.2 °F - 50.0 °F 77% 30.37 in 10.0 mi SW 4.6 mph - N/A Rain Rain
3:15 PM 57.2 °F - 50.0 °F 77% 30.37 in 10.0 mi SW 3.5 mph - N/A   Overcast
3:35 PM 59.0 °F - 48.2 °F 67% 30.37 in 10.0 mi Calm Calm - N/A Rain Light Rain
3:55 PM 62.6 °F - 41.0 °F 45% 30.36 in 10.0 mi NNE 16.1 mph - N/A   Overcast
4:15 PM 62.6 °F - 41.0 °F 45% 30.35 in 10.0 mi NNE 11.5 mph - N/A   Overcast
4:35 PM 60.8 °F - 46.4 °F 59% 30.35 in 10.0 mi NNW 10.4 mph - N/A   Overcast
4:55 PM 60.8 °F - 46.4 °F 59% 30.35 in 10.0 mi NW 10.4 mph - N/A   Mostly Cloudy
5:15 PM 60.8 °F - 48.2 °F 63% 30.35 in 10.0 mi NW 8.1 mph - N/A   Overcast
5:35 PM 60.8 °F - 50.0 °F 68% 30.36 in 10.0 mi North 3.5 mph - N/A Rain Rain
5:55 PM 62.6 °F - 42.8 °F 48% 30.35 in 10.0 mi ENE 12.7 mph - N/A   Overcast
6:15 PM 62.6 °F - 42.8 °F 48% 30.36 in 10.0 mi NNE 15.0 mph 19.6 mph N/A   Overcast
6:35 PM 60.8 °F - 41.0 °F 48% 30.35 in 10.0 mi NNE 11.5 mph 17.3 mph N/A   Overcast
6:55 PM 59.0 °F - 42.8 °F 55% 30.35 in 10.0 mi NNE 6.9 mph - N/A   Overcast
7:15 PM 59.0 °F - 44.6 °F 59% 30.35 in 10.0 mi NNE 11.5 mph 16.1 mph N/A Rain Light Rain
7:35 PM 59.0 °F - 42.8 °F 55% 30.35 in 10.0 mi NNE 10.4 mph - N/A   Overcast
7:55 PM 57.2 °F - 44.6 °F 63% 30.36 in 10.0 mi NNE 8.1 mph - N/A Rain Light Rain
8:15 PM 55.4 °F - 46.4 °F 72% 30.37 in 10.0 mi NNE 4.6 mph - N/A Rain Light Rain
8:35 PM 53.6 °F - 48.2 °F 82% 30.37 in 10.0 mi West 3.5 mph - N/A Rain Light Rain
8:55 PM 53.6 °F - 50.0 °F 88% 30.36 in 10.0 mi WSW 3.5 mph - N/A   Overcast
9:15 PM 55.4 °F - 46.4 °F 72% 30.37 in 10.0 mi NE 5.8 mph - N/A Rain Light Rain
9:35 PM 55.4 °F - 46.4 °F 72% 30.37 in 10.0 mi ENE 5.8 mph - N/A Rain Light Rain
9:55 PM 53.6 °F - 46.4 °F 77% 30.37 in 10.0 mi Calm Calm - N/A   Overcast
10:15 PM 53.6 °F - 48.2 °F 82% 30.37 in 10.0 mi Calm Calm - N/A   Overcast
10:35 PM 53.6 °F - 50.0 °F 88% 30.37 in 10.0 mi Calm Calm - N/A   Mostly Cloudy
10:55 PM 53.6 °F - 50.0 °F 88% 30.38 in 10.0 mi WNW 5.8 mph - N/A Rain Light Rain
11:15 PM 53.6 °F - 46.4 °F 77% 30.37 in 10.0 mi Calm Calm - N/A Rain Light Rain
11:35 PM 51.8 °F - 50.0 °F 94% 30.37 in 10.0 mi West 3.5 mph - N/A   Light Drizzle
11:55 PM 53.6 °F - 50.0 °F 88% 30.37 in 10.0 mi Calm Calm - N/A Rain Rain